[[{"header":{"parameterUnit":"m.s-1","parameterCategory":1,"la1":30.2991,"la2":30.254,"lo1":-89.0895,"lo2":-89.0444,"dy":0.0017,"dx":0.0017,"nx":28,"ny":28,"refTime":"2025-04-10T03:00:00:Z","depth":0,"parameterNumber":2,"parameterNumberName":"U-component_of_WINDS"},"data":[0,0,0,0,0,0,0,0,0,0,0,0,0,0,0,0,0,0,0,0,0,0,0,0,0,0,0,0,0,0,0,0,0,0,0,0,0,0,0,0,0,0,0,0,0,0,0,0,0,0,0,0,0,0,0,0,0,0,4.5616,4.5617,0,4.5732,4.5734,4.5735,4.5635,4.5631,4.5627,4.5623,4.5752,4.5759,4.5766,0,0,0,0,0,0,0,0,0,0,0,0,0,4.5315,4.5321,4.5615,4.5617,4.5618,4.5732,4.5734,4.5735,4.5636,4.5631,4.5626,4.5621,4.5749,4.5758,4.5767,0,0,0,0,0,0,0,0,0,0,0,0,0,4.544,4.5323,4.5615,4.5582,4.558,4.5732,4.5734,4.5736,4.5637,4.5631,4.5625,4.5619,4.5746,4.5757,4.5768,4.596,0,0,4.5801,4.5806,0,0,0,0,0,0,0,0,4.5433,4.5451,4.5586,4.5585,4.5583,4.5663,4.5675,4.5811,4.5639,4.5616,4.5623,4.5616,4.5728,4.574,4.5776,4.5966,4.5972,4.5802,4.5809,4.5814,4.5817,0,0,0,0,0,0,0,4.5424,4.5446,4.5662,4.5588,4.5586,4.5564,4.5575,4.57,4.5706,4.5617,4.561,4.5625,4.5726,4.5765,4.5778,4.5974,4.5802,4.5812,4.5818,4.5823,4.6329,4.6335,0,0,0,0,0,0,4.5418,4.5439,4.5658,4.5665,4.5491,4.5575,4.5587,4.5644,4.5704,4.5707,4.563,4.562,4.575,4.5765,4.5782,4.6012,4.5813,4.5824,4.583,4.6322,4.633,4.6338,0,0,0,0,0,0,4.5412,4.5438,4.5653,4.555,4.5576,4.5587,4.5651,4.5649,4.5688,4.5714,4.5715,4.5669,4.5745,4.5767,4.5916,4.6015,4.5829,4.5839,4.6314,4.6325,4.6334,4.6472,0,0,0,0,0,0,4.5404,4.5437,4.5508,4.5553,4.5582,4.5784,4.5657,4.5656,4.5707,4.5694,4.575,4.5754,4.5742,4.59,4.5927,4.6026,4.5847,4.6305,4.6319,4.6331,4.6459,4.6486,4.6509,0,0,0,0,0,4.5393,4.5544,4.5512,4.5539,4.5671,4.5789,4.5806,4.5787,4.5715,4.5788,4.5804,4.5752,4.5999,4.5917,4.5946,4.605,4.6299,4.6315,4.633,4.6448,4.6481,4.6509,0,0,0,0,0,0,4.5514,4.5549,4.5514,4.5684,4.5734,4.5772,4.5864,4.5823,4.5897,4.5883,4.5859,4.5872,4.603,4.6055,4.5962,4.624,4.6138,4.616,4.6218,4.6249,4.6274,4.6265,4.5856,0,0,0,0,0,4.556,4.5651,4.5678,4.5825,4.5851,4.5854,4.5905,4.5885,4.5938,4.5959,4.5986,4.6042,4.6131,4.6192,4.6276,4.6462,4.6474,4.6548,4.6573,4.6594,4.6613,4.6714,4.6748,4.6389,4.6389,4.6388,0,0,4.5657,4.5687,4.5747,4.585,4.5886,4.5983,4.5872,4.598,4.6052,4.5976,4.6118,4.6141,4.6201,4.6369,4.6445,4.6395,4.6715,4.6613,4.6629,4.6638,4.6734,4.6768,4.6798,4.6399,4.6397,4.6396,0,0,4.5882,4.5914,4.604,4.6078,4.6134,4.6134,4.6165,4.6209,4.622,4.6362,4.6307,4.6394,4.655,4.6595,4.6638,4.6881,4.6836,4.6909,4.7041,4.714,4.7168,4.7193,4.728,4.7312,4.6929,4.6929,4.6929,0,4.5997,4.6137,4.611,4.6221,4.6269,4.6202,4.6331,4.637,4.6453,4.6488,4.643,4.6624,4.666,4.6838,4.6897,4.6934,4.697,4.6903,4.7165,4.719,4.7213,4.7297,4.7329,4.6938,4.6937,4.6936,4.6935,0,4.6275,4.6374,4.647,4.6547,4.6605,4.6725,4.6719,4.6782,4.6758,4.6765,4.6911,4.6951,4.7043,4.7084,4.7062,4.726,4.7227,4.7168,4.7065,4.7257,4.7334,4.7366,4.695,4.6947,4.6944,4.6942,0,0,4.6581,4.6641,4.6677,4.6711,4.6768,4.6845,4.6962,4.7049,4.7104,4.7163,4.7262,4.7395,4.734,4.739,4.7373,4.7459,4.765,4.739,4.7391,4.7437,4.7872,4.7916,4.7953,4.762,4.7626,4.7631,4.7867,0,4.6809,4.701,4.6989,4.7181,4.7273,4.7211,4.7313,4.7361,4.7371,4.7452,4.7465,4.7559,4.7479,4.7509,4.7592,4.7609,4.7737,4.7592,4.7715,4.7719,4.7702,4.7994,4.8041,4.8262,4.7897,4.7902,4.7906,0,4.7102,4.7168,4.7369,4.7411,4.7449,4.7541,4.7619,4.7697,4.775,4.7751,4.7806,4.7775,4.7895,4.7789,4.7956,4.7858,4.7907,4.7924,4.7932,4.7943,4.7825,4.8014,4.8331,4.8365,4.7953,4.7949,4.7946,0,4.7306,4.7446,4.7584,4.7615,4.7668,4.7734,4.776,4.7806,4.786,4.7929,4.7963,4.8047,4.8093,4.8159,4.8152,4.8075,4.8323,4.8216,4.8329,4.833,4.8385,4.8382,4.8716,4.8416,4.8415,4.8414,4.8414,0,4.7564,4.7689,4.7676,4.7761,4.79,4.7876,4.8016,4.8034,4.8076,4.8165,4.8117,4.8203,4.8187,4.8274,4.8269,4.8409,4.843,4.8436,4.8434,4.8441,4.844,4.8474,4.8459,4.8423,4.8421,4.842,4.8418,0,4.7815,4.7811,4.7957,4.7994,4.8007,4.8108,4.8141,4.8223,4.8228,4.8342,4.8367,4.8378,4.8477,4.8475,4.8589,4.8586,4.8758,4.8737,4.8739,4.8735,4.8849,4.8838,4.9216,4.9265,4.8933,4.8936,4.8939,0,4.798,4.8075,4.8121,4.8176,4.8205,4.8295,4.8348,4.8328,4.8387,4.8454,4.8528,4.8622,4.8696,4.8858,4.8877,4.8964,4.8946,4.9073,4.8959,4.8964,4.8949,4.8944,4.8954,4.9095,4.9099,4.9102,4.9105,0,4.8274,4.8267,4.8344,4.8421,4.8485,4.8546,4.8601,4.865,4.8636,4.8705,4.8804,4.8861,4.8975,4.907,4.9154,4.9183,4.9144,4.914,4.9171,4.918,4.9177,4.9181,4.88,4.9132,4.9129,4.9127,4.9125,4.9124,4.8488,4.8569,4.8614,4.8702,4.8741,4.8793,4.8872,4.8886,4.8967,4.9057,4.9041,4.9153,4.9204,4.9312,4.9349,4.9437,4.9393,4.9438,4.945,4.9461,4.9474,4.9162,4.9452,4.9452,4.9451,4.945,4.945,0,4.8779,4.8805,4.8885,4.8963,4.9033,4.8985,4.9044,4.9107,4.9204,4.9254,4.9327,4.9442,4.9533,4.9559,4.9648,4.9714,4.9698,4.9738,4.9734,4.9741,4.9508,4.9472,4.975,4.975,4.975,4.9749,4.9749,4.9749,4.8939,4.9074,4.9072,4.9227,4.9252,4.9358,4.9396,4.9445,4.9485,4.9614,4.9688,4.9703,4.9745,4.9836,4.9919,4.9924,4.996,5.0008,5.0006,4.9788,4.9758,4.9729,4.9696,5.0015,5.0016,5.0232,5.0234,5.0236]},{"header":{"parameterUnit":"m.s-1","parameterCategory":1,"la1":30.2991,"la2":30.254,"lo1":-89.0895,"lo2":-89.0444,"dy":0.0017,"dx":0.0017,"nx":28,"ny":28,"refTime":"2025-04-10T03:00:00:Z","depth":0,"parameterNumber":3,"parameterNumberName":"V-component_of_WINDS"},"data":[0,0,0,0,0,0,0,0,0,0,0,0,0,0,0,0,0,0,0,0,0,0,0,0,0,0,0,0,0,0,0,0,0,0,0,0,0,0,0,0,0,0,0,0,0,0,0,0,0,0,0,0,0,0,0,0,0,0,1.6925,1.6927,0,1.704,1.7041,1.7043,1.7038,1.7036,1.7034,1.7033,1.7153,1.7157,1.7162,0,0,0,0,0,0,0,0,0,0,0,0,0,1.6704,1.6708,1.6925,1.6927,1.6928,1.704,1.7042,1.7043,1.7038,1.7036,1.7034,1.7032,1.7151,1.7157,1.7162,0,0,0,0,0,0,0,0,0,0,0,0,0,1.6808,1.671,1.6925,1.6939,1.6941,1.704,1.7042,1.7044,1.7038,1.7036,1.7033,1.7031,1.7149,1.7156,1.7163,1.7256,0,0,1.7185,1.7188,0,0,0,0,0,0,0,0,1.6802,1.6816,1.6936,1.6938,1.6941,1.7022,1.7007,1.7115,1.7039,1.7002,1.7033,1.703,1.7111,1.7121,1.7148,1.7261,1.7266,1.7185,1.719,1.7193,1.7195,0,0,0,0,0,0,0,1.6795,1.6811,1.6971,1.6937,1.6941,1.694,1.6952,1.7028,1.7069,1.7005,1.7005,1.7018,1.7112,1.7142,1.7151,1.7268,1.7185,1.7191,1.7196,1.7199,1.7463,1.7466,0,0,0,0,0,0,1.6784,1.6805,1.6967,1.6974,1.6864,1.6946,1.696,1.6999,1.7068,1.7076,1.702,1.7017,1.7131,1.7143,1.7155,1.7269,1.7193,1.7199,1.7203,1.7461,1.7464,1.7467,0,0,0,0,0,0,1.6779,1.6799,1.6963,1.689,1.691,1.6953,1.6996,1.7002,1.7031,1.708,1.7087,1.7042,1.7129,1.7145,1.7231,1.7273,1.7202,1.7209,1.7457,1.7462,1.7466,1.7496,0,0,0,0,0,0,1.6773,1.6797,1.6832,1.689,1.6914,1.7035,1.6999,1.7006,1.7043,1.7041,1.7102,1.711,1.7129,1.722,1.7238,1.7281,1.7214,1.7454,1.7459,1.7464,1.7491,1.75,1.7508,0,0,0,0,0,1.6765,1.6836,1.6834,1.6853,1.6959,1.7038,1.7052,1.7071,1.7047,1.7083,1.7114,1.7108,1.7265,1.7229,1.7249,1.7295,1.7451,1.7458,1.7464,1.7487,1.7499,1.7508,0,0,0,0,0,0,1.6782,1.6844,1.6842,1.6934,1.698,1.7037,1.7083,1.7082,1.7137,1.7132,1.7154,1.7168,1.7254,1.7283,1.7242,1.7388,1.7355,1.7366,1.7366,1.7377,1.7386,1.7377,1.722,0,0,0,0,0,1.6796,1.6855,1.6906,1.6982,1.7005,1.704,1.7075,1.7086,1.7135,1.7155,1.7193,1.7242,1.7302,1.7341,1.7399,1.7495,1.7509,1.7537,1.7545,1.7552,1.7561,1.7614,1.7628,1.7488,1.7488,1.7488,0,0,1.6827,1.6868,1.6903,1.6986,1.7024,1.7084,1.7057,1.7122,1.7167,1.7165,1.7248,1.7277,1.7333,1.7424,1.7467,1.7451,1.7603,1.756,1.7565,1.7571,1.7622,1.7635,1.7647,1.7492,1.7491,1.7491,0,0,1.6913,1.695,1.7017,1.7055,1.7112,1.7135,1.7151,1.7208,1.7227,1.731,1.731,1.7365,1.7468,1.7508,1.7542,1.7644,1.7641,1.7663,1.7707,1.7759,1.777,1.778,1.7817,1.783,1.7671,1.7671,1.7671,0,1.6944,1.7034,1.7052,1.7118,1.7155,1.7155,1.7224,1.7261,1.7334,1.736,1.7342,1.7472,1.751,1.761,1.7635,1.7662,1.7682,1.7656,1.7767,1.7777,1.7787,1.7822,1.7836,1.7674,1.7673,1.7673,1.7673,0,1.7069,1.7132,1.718,1.725,1.7293,1.736,1.7389,1.743,1.7437,1.7462,1.7547,1.7592,1.766,1.7685,1.7692,1.7787,1.7776,1.7762,1.7729,1.7802,1.7835,1.7849,1.7677,1.7676,1.7675,1.7675,0,0,1.7169,1.7248,1.7266,1.7298,1.7361,1.741,1.7478,1.7543,1.7578,1.7629,1.7687,1.7774,1.7762,1.7801,1.7813,1.7859,1.7937,1.784,1.7841,1.7856,1.8044,1.8054,1.807,1.7936,1.7938,1.794,1.804,0,1.7262,1.7381,1.7399,1.7504,1.7563,1.7565,1.7624,1.7669,1.7694,1.7749,1.7777,1.7839,1.7818,1.7841,1.7886,1.7918,1.7975,1.7911,1.799,1.7993,1.7976,1.8087,1.8098,1.8189,1.8053,1.8055,1.8057,0,1.7386,1.7439,1.755,1.7605,1.7631,1.7683,1.7745,1.7797,1.7849,1.7864,1.7907,1.7914,1.7985,1.7949,1.8048,1.8004,1.8037,1.8058,1.8062,1.807,1.8029,1.8099,1.8219,1.8233,1.8078,1.8076,1.8075,0,1.7448,1.7547,1.7627,1.7654,1.7721,1.7758,1.7787,1.7837,1.7875,1.793,1.7955,1.8017,1.8051,1.81,1.8124,1.8095,1.8221,1.8187,1.8236,1.8236,1.8263,1.8261,1.839,1.8284,1.8284,1.8284,1.8283,0,1.7549,1.7617,1.7655,1.7704,1.778,1.7802,1.7877,1.7906,1.795,1.8005,1.801,1.8062,1.8091,1.8147,1.8166,1.8245,1.8261,1.8275,1.828,1.8275,1.8273,1.8297,1.8292,1.8287,1.8286,1.8286,1.8285,0,1.7631,1.7659,1.7746,1.7802,1.7818,1.7871,1.792,1.7968,1.7993,1.8063,1.808,1.812,1.8186,1.8215,1.8297,1.831,1.84,1.84,1.8383,1.8384,1.8432,1.8427,1.8582,1.8603,1.8483,1.8484,1.8485,0,1.7694,1.7746,1.7808,1.7845,1.7875,1.7935,1.7974,1.7997,1.8038,1.8102,1.8142,1.8209,1.8263,1.8369,1.8406,1.8469,1.847,1.852,1.848,1.8473,1.8471,1.8468,1.8473,1.8527,1.8529,1.8529,1.853,0,1.7803,1.7814,1.787,1.7931,1.7978,1.8027,1.8076,1.8106,1.8137,1.8183,1.8251,1.8293,1.8376,1.8443,1.8508,1.8539,1.8541,1.8543,1.8558,1.8553,1.8541,1.8549,1.8403,1.8539,1.8538,1.8538,1.8537,1.8537,1.7877,1.7924,1.7974,1.8037,1.8076,1.8121,1.8169,1.82,1.8257,1.8326,1.8337,1.8409,1.8461,1.8549,1.8583,1.864,1.8628,1.8649,1.8655,1.866,1.8663,1.8532,1.8652,1.8652,1.8652,1.8652,1.8651,0,1.7986,1.8019,1.8076,1.8144,1.8193,1.8189,1.8243,1.8285,1.8348,1.8396,1.845,1.8528,1.8592,1.8634,1.8699,1.8737,1.874,1.8754,1.8751,1.8759,1.867,1.8651,1.8751,1.8751,1.8751,1.8751,1.8751,1.8751,1.8049,1.8127,1.8145,1.8244,1.8276,1.8347,1.8378,1.842,1.8459,1.8546,1.8599,1.8626,1.8671,1.874,1.8799,1.881,1.8834,1.8849,1.8859,1.8775,1.8765,1.8755,1.8737,1.8854,1.8854,1.8943,1.8944,1.8944]}]]